<?xml version="1.0" encoding="UTF-8" standalone="no" ?>
<gpx xmlns="http://www.topografix.com/GPX/1/1" xmlns:xsi="http://www.w3.org/2001/XMLSchema-instance" xsi:schemaLocation="http://www.topografix.com/GPX/1/1 http://www.topografix.com/GPX/1/1/gpx.xsd" version="1.1" creator="VisuGPX - https://www.visugpx.com">
  <metadata>
    <name>Baume les Messieurs - Saint Quentin Fallavier</name>
    <desc><![CDATA[étape 2/4 de Besançon - Grau du Roi méditerranée]]></desc>
  </metadata>
  <trk>
    <name><![CDATA[Import from KML]]></name>
    <trkseg>
      <trkpt lat="46.71193" lon="5.642">
        <ele>299.2</ele>
        <time>2012-07-26T07:14:53.0925945Z</time>
      </trkpt>
      <trkpt lat="46.71183" lon="5.64308">
        <ele>303.5</ele>
        <time>2012-07-26T07:14:53.0925945Z</time>
      </trkpt>
      <trkpt lat="46.71095" lon="5.64512">
        <ele>316.2</ele>
        <time>2012-07-26T07:14:53.0925945Z</time>
      </trkpt>
      <trkpt lat="46.71035" lon="5.64643">
        <ele>324.5</ele>
        <time>2012-07-26T07:14:53.0925945Z</time>
      </trkpt>
      <trkpt lat="46.71042" lon="5.64719">
        <ele>334.1</ele>
        <time>2012-07-26T07:14:53.0925945Z</time>
      </trkpt>
      <trkpt lat="46.71012" lon="5.64797">
        <ele>346.3</ele>
        <time>2012-07-26T07:14:53.0925945Z</time>
      </trkpt>
      <trkpt lat="46.71074" lon="5.6476">
        <ele>357.3</ele>
        <time>2012-07-26T07:14:53.0925945Z</time>
      </trkpt>
      <trkpt lat="46.71151" lon="5.64667">
        <ele>366.4</ele>
        <time>2012-07-26T07:14:53.0925945Z</time>
      </trkpt>
      <trkpt lat="46.71218" lon="5.64542">
        <ele>376.7</ele>
        <time>2012-07-26T07:14:53.0925945Z</time>
      </trkpt>
      <trkpt lat="46.71132" lon="5.64787">
        <ele>394.6</ele>
        <time>2012-07-26T07:14:53.0925945Z</time>
      </trkpt>
      <trkpt lat="46.70873" lon="5.65126">
        <ele>420.8</ele>
        <time>2012-07-26T07:14:53.0925945Z</time>
      </trkpt>
      <trkpt lat="46.70929" lon="5.65619">
        <ele>463.3</ele>
        <time>2012-07-26T07:14:53.0925945Z</time>
      </trkpt>
      <trkpt lat="46.7082" lon="5.65878">
        <ele>482</ele>
        <time>2012-07-26T07:14:53.0925945Z</time>
      </trkpt>
      <trkpt lat="46.70664" lon="5.65897">
        <ele>495.4</ele>
        <time>2012-07-26T07:14:53.0925945Z</time>
      </trkpt>
      <trkpt lat="46.7061" lon="5.66016">
        <ele>498.6</ele>
        <time>2012-07-26T07:14:53.0925945Z</time>
      </trkpt>
      <trkpt lat="46.70369" lon="5.66252">
        <ele>508.1</ele>
        <time>2012-07-26T07:14:53.0925945Z</time>
      </trkpt>
      <trkpt lat="46.70121" lon="5.66206">
        <ele>511.7</ele>
        <time>2012-07-26T07:14:53.0925945Z</time>
      </trkpt>
      <trkpt lat="46.69911" lon="5.66227">
        <ele>508.6</ele>
        <time>2012-07-26T07:14:53.0925945Z</time>
      </trkpt>
      <trkpt lat="46.69755" lon="5.66352">
        <ele>507.5</ele>
        <time>2012-07-26T07:14:53.0925945Z</time>
      </trkpt>
      <trkpt lat="46.6936" lon="5.66429">
        <ele>513.4</ele>
        <time>2012-07-26T07:14:53.0925945Z</time>
      </trkpt>
      <trkpt lat="46.69225" lon="5.66585">
        <ele>511.2</ele>
        <time>2012-07-26T07:14:53.0925945Z</time>
      </trkpt>
      <trkpt lat="46.68832" lon="5.6607">
        <ele>513</ele>
        <time>2012-07-26T07:14:53.0925945Z</time>
      </trkpt>
      <trkpt lat="46.68605" lon="5.64038">
        <ele>507</ele>
        <time>2012-07-26T07:14:53.0925945Z</time>
      </trkpt>
      <trkpt lat="46.67817" lon="5.62974">
        <ele>538.6</ele>
        <time>2012-07-26T07:14:53.0925945Z</time>
      </trkpt>
      <trkpt lat="46.68158" lon="5.61993">
        <ele>539</ele>
        <time>2012-07-26T07:14:53.0925945Z</time>
      </trkpt>
      <trkpt lat="46.68995" lon="5.61021">
        <ele>488.2</ele>
        <time>2012-07-26T07:14:53.0925945Z</time>
      </trkpt>
      <trkpt lat="46.69842" lon="5.60136">
        <ele>413.2</ele>
        <time>2012-07-26T07:14:53.0925945Z</time>
      </trkpt>
      <trkpt lat="46.68632" lon="5.59078">
        <ele>360.4</ele>
        <time>2012-07-26T07:14:53.0925945Z</time>
      </trkpt>
      <trkpt lat="46.67551" lon="5.58425">
        <ele>315.8</ele>
        <time>2012-07-26T07:14:53.0925945Z</time>
      </trkpt>
      <trkpt lat="46.6693" lon="5.57435">
        <ele>277.6</ele>
        <time>2012-07-26T07:14:53.0925945Z</time>
      </trkpt>
      <trkpt lat="46.67295" lon="5.56063">
        <ele>260.2</ele>
        <time>2012-07-26T07:14:53.0925945Z</time>
      </trkpt>
      <trkpt lat="46.67451" lon="5.54923">
        <ele>252</ele>
        <time>2012-07-26T07:14:53.0925945Z</time>
      </trkpt>
      <trkpt lat="46.67258" lon="5.54322">
        <ele>251.1</ele>
        <time>2012-07-26T07:14:53.0925945Z</time>
      </trkpt>
      <trkpt lat="46.66936" lon="5.54711">
        <ele>263.3</ele>
        <time>2012-07-26T07:14:53.0925945Z</time>
      </trkpt>
      <trkpt lat="46.66766" lon="5.54714">
        <ele>272</ele>
        <time>2012-07-26T07:14:53.0925945Z</time>
      </trkpt>
      <trkpt lat="46.66678" lon="5.54505">
        <ele>282.4</ele>
        <time>2012-07-26T07:14:53.0925945Z</time>
      </trkpt>
      <trkpt lat="46.66446" lon="5.54329">
        <ele>295.7</ele>
        <time>2012-07-26T07:14:53.0925945Z</time>
      </trkpt>
      <trkpt lat="46.66074" lon="5.54096">
        <ele>304.3</ele>
        <time>2012-07-26T07:14:53.0925945Z</time>
      </trkpt>
      <trkpt lat="46.6581" lon="5.53969">
        <ele>290.8</ele>
        <time>2012-07-26T07:14:53.0925945Z</time>
      </trkpt>
      <trkpt lat="46.65429" lon="5.53829">
        <ele>279.5</ele>
        <time>2012-07-26T07:14:53.0925945Z</time>
      </trkpt>
      <trkpt lat="46.64876" lon="5.53914">
        <ele>265.4</ele>
        <time>2012-07-26T07:14:53.0925945Z</time>
      </trkpt>
      <trkpt lat="46.64564" lon="5.54113">
        <ele>272</ele>
        <time>2012-07-26T07:14:53.0925945Z</time>
      </trkpt>
      <trkpt lat="46.64399" lon="5.54006">
        <ele>272.8</ele>
        <time>2012-07-26T07:14:53.0925945Z</time>
      </trkpt>
      <trkpt lat="46.64066" lon="5.54042">
        <ele>299.5</ele>
        <time>2012-07-26T07:14:53.0925945Z</time>
      </trkpt>
      <trkpt lat="46.63569" lon="5.54201">
        <ele>328.7</ele>
        <time>2012-07-26T07:14:53.0925945Z</time>
      </trkpt>
      <trkpt lat="46.63224" lon="5.54234">
        <ele>358.3</ele>
        <time>2012-07-26T07:14:53.0925945Z</time>
      </trkpt>
      <trkpt lat="46.63662" lon="5.54026">
        <ele>389.4</ele>
        <time>2012-07-26T07:14:53.0925945Z</time>
      </trkpt>
      <trkpt lat="46.63247" lon="5.53583">
        <ele>410.5</ele>
        <time>2012-07-26T07:14:53.0925945Z</time>
      </trkpt>
      <trkpt lat="46.62925" lon="5.53402">
        <ele>432.3</ele>
        <time>2012-07-26T07:14:53.0925945Z</time>
      </trkpt>
      <trkpt lat="46.62735" lon="5.53022">
        <ele>435.8</ele>
        <time>2012-07-26T07:14:53.0925945Z</time>
      </trkpt>
      <trkpt lat="46.62277" lon="5.52804">
        <ele>438.8</ele>
        <time>2012-07-26T07:14:53.0925945Z</time>
      </trkpt>
      <trkpt lat="46.61728" lon="5.52856">
        <ele>447</ele>
        <time>2012-07-26T07:14:53.0925945Z</time>
      </trkpt>
      <trkpt lat="46.61193" lon="5.52617">
        <ele>455.3</ele>
        <time>2012-07-26T07:14:53.0925945Z</time>
      </trkpt>
      <trkpt lat="46.60751" lon="5.52321">
        <ele>462.9</ele>
        <time>2012-07-26T07:14:53.0925945Z</time>
      </trkpt>
      <trkpt lat="46.60412" lon="5.52098">
        <ele>477.7</ele>
        <time>2012-07-26T07:14:53.0925945Z</time>
      </trkpt>
      <trkpt lat="46.5979" lon="5.51961">
        <ele>486.5</ele>
        <time>2012-07-26T07:14:53.0925945Z</time>
      </trkpt>
      <trkpt lat="46.59047" lon="5.51963">
        <ele>480.1</ele>
        <time>2012-07-26T07:14:53.0925945Z</time>
      </trkpt>
      <trkpt lat="46.58175" lon="5.51644">
        <ele>463.3</ele>
        <time>2012-07-26T07:14:53.0925945Z</time>
      </trkpt>
      <trkpt lat="46.5755" lon="5.51329">
        <ele>450.8</ele>
        <time>2012-07-26T07:14:53.0925945Z</time>
      </trkpt>
      <trkpt lat="46.56924" lon="5.50708">
        <ele>484.4</ele>
        <time>2012-07-26T07:14:53.0925945Z</time>
      </trkpt>
      <trkpt lat="46.564" lon="5.50379">
        <ele>488.4</ele>
        <time>2012-07-26T07:14:53.0925945Z</time>
      </trkpt>
      <trkpt lat="46.5583" lon="5.49971">
        <ele>479.1</ele>
        <time>2012-07-26T07:14:53.0925945Z</time>
      </trkpt>
      <trkpt lat="46.55358" lon="5.49355">
        <ele>488.8</ele>
        <time>2012-07-26T07:14:53.0925945Z</time>
      </trkpt>
      <trkpt lat="46.55135" lon="5.49167">
        <ele>497.8</ele>
        <time>2012-07-26T07:14:53.0925945Z</time>
      </trkpt>
      <trkpt lat="46.55132" lon="5.48772">
        <ele>502.8</ele>
        <time>2012-07-26T07:14:53.0925945Z</time>
      </trkpt>
      <trkpt lat="46.54897" lon="5.48475">
        <ele>490.9</ele>
        <time>2012-07-26T07:14:53.0925945Z</time>
      </trkpt>
      <trkpt lat="46.5427" lon="5.48116">
        <ele>475.5</ele>
        <time>2012-07-26T07:14:53.0925945Z</time>
      </trkpt>
      <trkpt lat="46.54033" lon="5.47909">
        <ele>470</ele>
        <time>2012-07-26T07:14:53.0925945Z</time>
      </trkpt>
      <trkpt lat="46.53489" lon="5.47866">
        <ele>451.7</ele>
        <time>2012-07-26T07:14:53.0925945Z</time>
      </trkpt>
      <trkpt lat="46.53078" lon="5.4801">
        <ele>445</ele>
        <time>2012-07-26T07:14:53.0925945Z</time>
      </trkpt>
      <trkpt lat="46.52247" lon="5.47692">
        <ele>440.9</ele>
        <time>2012-07-26T07:14:53.0925945Z</time>
      </trkpt>
      <trkpt lat="46.51841" lon="5.47515">
        <ele>440.2</ele>
        <time>2012-07-26T07:14:53.0925945Z</time>
      </trkpt>
      <trkpt lat="46.5045" lon="5.46986">
        <ele>436.6</ele>
        <time>2012-07-26T07:14:53.0925945Z</time>
      </trkpt>
      <trkpt lat="46.49985" lon="5.47028">
        <ele>436.5</ele>
        <time>2012-07-26T07:14:53.0925945Z</time>
      </trkpt>
      <trkpt lat="46.49183" lon="5.46751">
        <ele>412.6</ele>
        <time>2012-07-26T07:14:53.0925945Z</time>
      </trkpt>
      <trkpt lat="46.48926" lon="5.46905">
        <ele>395.9</ele>
        <time>2012-07-26T07:14:53.0925945Z</time>
      </trkpt>
      <trkpt lat="46.48376" lon="5.46623">
        <ele>378</ele>
        <time>2012-07-26T07:14:53.0925945Z</time>
      </trkpt>
      <trkpt lat="46.4557" lon="5.46098">
        <ele>370.5</ele>
        <time>2012-07-26T07:14:53.0925945Z</time>
      </trkpt>
      <trkpt lat="46.44835" lon="5.45781">
        <ele>374</ele>
        <time>2012-07-26T07:14:53.0925945Z</time>
      </trkpt>
      <trkpt lat="46.44008" lon="5.45659">
        <ele>364.7</ele>
        <time>2012-07-26T07:14:53.0925945Z</time>
      </trkpt>
      <trkpt lat="46.43334" lon="5.45689">
        <ele>363.2</ele>
        <time>2012-07-26T07:14:53.0925945Z</time>
      </trkpt>
      <trkpt lat="46.42781" lon="5.45658">
        <ele>373.6</ele>
        <time>2012-07-26T07:14:53.0925945Z</time>
      </trkpt>
      <trkpt lat="46.41475" lon="5.45278">
        <ele>369.1</ele>
        <time>2012-07-26T07:14:53.0925945Z</time>
      </trkpt>
      <trkpt lat="46.40622" lon="5.44993">
        <ele>360.2</ele>
        <time>2012-07-26T07:14:53.0925945Z</time>
      </trkpt>
      <trkpt lat="46.39877" lon="5.45289">
        <ele>355.2</ele>
        <time>2012-07-26T07:14:53.0925945Z</time>
      </trkpt>
      <trkpt lat="46.39534" lon="5.45198">
        <ele>369.7</ele>
        <time>2012-07-26T07:14:53.0925945Z</time>
      </trkpt>
      <trkpt lat="46.39248" lon="5.45281">
        <ele>382.4</ele>
        <time>2012-07-26T07:14:53.0925945Z</time>
      </trkpt>
      <trkpt lat="46.38873" lon="5.45154">
        <ele>364.4</ele>
        <time>2012-07-26T07:14:53.0925945Z</time>
      </trkpt>
      <trkpt lat="46.3845" lon="5.44632">
        <ele>354.1</ele>
        <time>2012-07-26T07:14:53.0925945Z</time>
      </trkpt>
      <trkpt lat="46.3773" lon="5.43995">
        <ele>351.1</ele>
        <time>2012-07-26T07:14:53.0925945Z</time>
      </trkpt>
      <trkpt lat="46.37121" lon="5.4363">
        <ele>359.5</ele>
        <time>2012-07-26T07:14:53.0925945Z</time>
      </trkpt>
      <trkpt lat="46.36494" lon="5.43608">
        <ele>347.8</ele>
        <time>2012-07-26T07:14:53.0925945Z</time>
      </trkpt>
      <trkpt lat="46.35231" lon="5.43693">
        <ele>347.2</ele>
        <time>2012-07-26T07:14:53.0925945Z</time>
      </trkpt>
      <trkpt lat="46.34952" lon="5.43835">
        <ele>339.9</ele>
        <time>2012-07-26T07:14:53.0925945Z</time>
      </trkpt>
      <trkpt lat="46.34471" lon="5.43802">
        <ele>340.4</ele>
        <time>2012-07-26T07:14:53.0925945Z</time>
      </trkpt>
      <trkpt lat="46.33966" lon="5.43933">
        <ele>336.2</ele>
        <time>2012-07-26T07:14:53.0925945Z</time>
      </trkpt>
      <trkpt lat="46.33661" lon="5.43691">
        <ele>335</ele>
        <time>2012-07-26T07:14:53.0925945Z</time>
      </trkpt>
      <trkpt lat="46.32652" lon="5.43823">
        <ele>356</ele>
        <time>2012-07-26T07:14:53.0925945Z</time>
      </trkpt>
      <trkpt lat="46.32137" lon="5.44246">
        <ele>341.6</ele>
        <time>2012-07-26T07:14:53.0925945Z</time>
      </trkpt>
      <trkpt lat="46.3171" lon="5.44432">
        <ele>333.6</ele>
        <time>2012-07-26T07:14:53.0925945Z</time>
      </trkpt>
      <trkpt lat="46.31168" lon="5.44252">
        <ele>334.2</ele>
        <time>2012-07-26T07:14:53.0925945Z</time>
      </trkpt>
      <trkpt lat="46.30771" lon="5.44032">
        <ele>331.7</ele>
        <time>2012-07-26T07:14:53.0925945Z</time>
      </trkpt>
      <trkpt lat="46.30212" lon="5.43899">
        <ele>330.2</ele>
        <time>2012-07-26T07:14:53.0925945Z</time>
      </trkpt>
      <trkpt lat="46.29411" lon="5.43499">
        <ele>326</ele>
        <time>2012-07-26T07:14:53.0925945Z</time>
      </trkpt>
      <trkpt lat="46.28806" lon="5.43139">
        <ele>323</ele>
        <time>2012-07-26T07:14:53.0925945Z</time>
      </trkpt>
      <trkpt lat="46.28206" lon="5.43113">
        <ele>321</ele>
        <time>2012-07-26T07:14:53.0925945Z</time>
      </trkpt>
      <trkpt lat="46.2722" lon="5.4281">
        <ele>325.1</ele>
        <time>2012-07-26T07:14:53.0925945Z</time>
      </trkpt>
      <trkpt lat="46.2628" lon="5.42581">
        <ele>316.1</ele>
        <time>2012-07-26T07:14:53.0925945Z</time>
      </trkpt>
      <trkpt lat="46.24685" lon="5.4234">
        <ele>313.8</ele>
        <time>2012-07-26T07:14:53.0925945Z</time>
      </trkpt>
      <trkpt lat="46.2377" lon="5.42333">
        <ele>312</ele>
        <time>2012-07-26T07:14:53.0925945Z</time>
      </trkpt>
      <trkpt lat="46.2286" lon="5.4176">
        <ele>311</ele>
        <time>2012-07-26T07:14:53.0925945Z</time>
      </trkpt>
      <trkpt lat="46.22549" lon="5.41706">
        <ele>305.9</ele>
        <time>2012-07-26T07:14:53.0925945Z</time>
      </trkpt>
      <trkpt lat="46.22118" lon="5.41406">
        <ele>308.8</ele>
        <time>2012-07-26T07:14:53.0925945Z</time>
      </trkpt>
      <trkpt lat="46.21524" lon="5.4113">
        <ele>309</ele>
        <time>2012-07-26T07:14:53.0925945Z</time>
      </trkpt>
      <trkpt lat="46.21026" lon="5.40949">
        <ele>306.8</ele>
        <time>2012-07-26T07:14:53.0925945Z</time>
      </trkpt>
      <trkpt lat="46.20612" lon="5.40136">
        <ele>303</ele>
        <time>2012-07-26T07:14:53.0925945Z</time>
      </trkpt>
      <trkpt lat="46.19147" lon="5.39804">
        <ele>299</ele>
        <time>2012-07-26T07:14:53.0925945Z</time>
      </trkpt>
      <trkpt lat="46.16684" lon="5.39498">
        <ele>299.9</ele>
        <time>2012-07-26T07:14:53.0925945Z</time>
      </trkpt>
      <trkpt lat="46.13968" lon="5.39175">
        <ele>290.8</ele>
        <time>2012-07-26T07:14:53.0925945Z</time>
      </trkpt>
      <trkpt lat="46.11088" lon="5.39318">
        <ele>291.6</ele>
        <time>2012-07-26T07:14:53.0925945Z</time>
      </trkpt>
      <trkpt lat="46.08902" lon="5.37388">
        <ele>312.5</ele>
        <time>2012-07-26T07:14:53.0925945Z</time>
      </trkpt>
      <trkpt lat="46.08825" lon="5.37232">
        <ele>315.9</ele>
        <time>2012-07-26T07:14:53.0925945Z</time>
      </trkpt>
      <trkpt lat="46.08249" lon="5.37136">
        <ele>295.1</ele>
        <time>2012-07-26T07:14:53.0925945Z</time>
      </trkpt>
      <trkpt lat="46.08159" lon="5.37142">
        <ele>294.1</ele>
        <time>2012-07-26T07:14:53.0925945Z</time>
      </trkpt>
      <trkpt lat="46.08095" lon="5.37239">
        <ele>281.6</ele>
        <time>2012-07-26T07:14:53.0925945Z</time>
      </trkpt>
      <trkpt lat="46.07903" lon="5.37218">
        <ele>278.4</ele>
        <time>2012-07-26T07:14:53.0925945Z</time>
      </trkpt>
      <trkpt lat="46.07908" lon="5.3764">
        <ele>255.5</ele>
        <time>2012-07-26T07:14:53.0925945Z</time>
      </trkpt>
      <trkpt lat="46.0741" lon="5.37627">
        <ele>253.5</ele>
        <time>2012-07-26T07:14:53.0925945Z</time>
      </trkpt>
      <trkpt lat="46.0684" lon="5.37338">
        <ele>250.9</ele>
        <time>2012-07-26T07:14:53.0925945Z</time>
      </trkpt>
      <trkpt lat="46.05803" lon="5.36775">
        <ele>248.4</ele>
        <time>2012-07-26T07:14:53.0925945Z</time>
      </trkpt>
      <trkpt lat="46.05541" lon="5.36188">
        <ele>251.4</ele>
        <time>2012-07-26T07:14:53.0925945Z</time>
      </trkpt>
      <trkpt lat="46.05442" lon="5.35009">
        <ele>247.9</ele>
        <time>2012-07-26T07:14:53.0925945Z</time>
      </trkpt>
      <trkpt lat="46.05012" lon="5.3428">
        <ele>242.7</ele>
        <time>2012-07-26T07:14:53.0925945Z</time>
      </trkpt>
      <trkpt lat="46.049" lon="5.33575">
        <ele>242.2</ele>
        <time>2012-07-26T07:14:53.0925945Z</time>
      </trkpt>
      <trkpt lat="46.0497" lon="5.32935">
        <ele>238.8</ele>
        <time>2012-07-26T07:14:53.0925945Z</time>
      </trkpt>
      <trkpt lat="46.04903" lon="5.32235">
        <ele>238.5</ele>
        <time>2012-07-26T07:14:53.0925945Z</time>
      </trkpt>
      <trkpt lat="46.0473" lon="5.32082">
        <ele>249.7</ele>
        <time>2012-07-26T07:14:53.0925945Z</time>
      </trkpt>
      <trkpt lat="46.04305" lon="5.31805">
        <ele>242</ele>
        <time>2012-07-26T07:14:53.0925945Z</time>
      </trkpt>
      <trkpt lat="46.03985" lon="5.31682">
        <ele>240.6</ele>
        <time>2012-07-26T07:14:53.0925945Z</time>
      </trkpt>
      <trkpt lat="46.0344" lon="5.31048">
        <ele>246.3</ele>
        <time>2012-07-26T07:14:53.0925945Z</time>
      </trkpt>
      <trkpt lat="46.03124" lon="5.30891">
        <ele>247.1</ele>
        <time>2012-07-26T07:14:53.0925945Z</time>
      </trkpt>
      <trkpt lat="46.0271" lon="5.30535">
        <ele>242.6</ele>
        <time>2012-07-26T07:14:53.0925945Z</time>
      </trkpt>
      <trkpt lat="46.02104" lon="5.30386">
        <ele>244.5</ele>
        <time>2012-07-26T07:14:53.0925945Z</time>
      </trkpt>
      <trkpt lat="46.01237" lon="5.29826">
        <ele>254.7</ele>
        <time>2012-07-26T07:14:53.0925945Z</time>
      </trkpt>
      <trkpt lat="46.00986" lon="5.29754">
        <ele>258.6</ele>
        <time>2012-07-26T07:14:53.0925945Z</time>
      </trkpt>
      <trkpt lat="46.00655" lon="5.29622">
        <ele>260.1</ele>
        <time>2012-07-26T07:14:53.0925945Z</time>
      </trkpt>
      <trkpt lat="46.00449" lon="5.29152">
        <ele>240.2</ele>
        <time>2012-07-26T07:14:53.0925945Z</time>
      </trkpt>
      <trkpt lat="45.98165" lon="5.26142">
        <ele>231.8</ele>
        <time>2012-07-26T07:14:53.0925945Z</time>
      </trkpt>
      <trkpt lat="45.96641" lon="5.25059">
        <ele>230.9</ele>
        <time>2012-07-26T07:14:53.0925945Z</time>
      </trkpt>
      <trkpt lat="45.956" lon="5.24496">
        <ele>226.9</ele>
        <time>2012-07-26T07:14:53.0925945Z</time>
      </trkpt>
      <trkpt lat="45.94688" lon="5.24603">
        <ele>222</ele>
        <time>2012-07-26T07:14:53.0925945Z</time>
      </trkpt>
      <trkpt lat="45.94266" lon="5.24333">
        <ele>228.6</ele>
        <time>2012-07-26T07:14:53.0925945Z</time>
      </trkpt>
      <trkpt lat="45.93862" lon="5.24608">
        <ele>218</ele>
        <time>2012-07-26T07:14:53.0925945Z</time>
      </trkpt>
      <trkpt lat="45.92089" lon="5.23485">
        <ele>215</ele>
        <time>2012-07-26T07:14:53.0925945Z</time>
      </trkpt>
      <trkpt lat="45.9219" lon="5.22527">
        <ele>223.9</ele>
        <time>2012-07-26T07:14:53.0925945Z</time>
      </trkpt>
      <trkpt lat="45.91059" lon="5.21526">
        <ele>224.1</ele>
        <time>2012-07-26T07:14:53.0925945Z</time>
      </trkpt>
      <trkpt lat="45.90592" lon="5.21612">
        <ele>218</ele>
        <time>2012-07-26T07:14:53.0925945Z</time>
      </trkpt>
      <trkpt lat="45.90685" lon="5.23177">
        <ele>218.8</ele>
        <time>2012-07-26T07:14:53.0925945Z</time>
      </trkpt>
      <trkpt lat="45.90101" lon="5.23577">
        <ele>219</ele>
        <time>2012-07-26T07:14:53.0925945Z</time>
      </trkpt>
      <trkpt lat="45.89751" lon="5.23178">
        <ele>218</ele>
        <time>2012-07-26T07:14:53.0925945Z</time>
      </trkpt>
      <trkpt lat="45.89494" lon="5.22757">
        <ele>217.9</ele>
        <time>2012-07-26T07:14:53.0925945Z</time>
      </trkpt>
      <trkpt lat="45.88849" lon="5.22661">
        <ele>213.2</ele>
        <time>2012-07-26T07:14:53.0925945Z</time>
      </trkpt>
      <trkpt lat="45.88115" lon="5.2184">
        <ele>218.9</ele>
        <time>2012-07-26T07:14:53.0925945Z</time>
      </trkpt>
      <trkpt lat="45.87871" lon="5.21981">
        <ele>225.9</ele>
        <time>2012-07-26T07:14:53.0925945Z</time>
      </trkpt>
      <trkpt lat="45.87527" lon="5.2205">
        <ele>227.8</ele>
        <time>2012-07-26T07:14:53.0925945Z</time>
      </trkpt>
      <trkpt lat="45.87016" lon="5.22385">
        <ele>238</ele>
        <time>2012-07-26T07:14:53.0925945Z</time>
      </trkpt>
      <trkpt lat="45.86485" lon="5.22322">
        <ele>231.8</ele>
        <time>2012-07-26T07:14:53.0925945Z</time>
      </trkpt>
      <trkpt lat="45.85749" lon="5.22306">
        <ele>224.9</ele>
        <time>2012-07-26T07:14:53.0925945Z</time>
      </trkpt>
      <trkpt lat="45.85406" lon="5.22101">
        <ele>215.8</ele>
        <time>2012-07-26T07:14:53.0925945Z</time>
      </trkpt>
      <trkpt lat="45.8487" lon="5.21902">
        <ele>214</ele>
        <time>2012-07-26T07:14:53.0925945Z</time>
      </trkpt>
      <trkpt lat="45.84443" lon="5.21702">
        <ele>205.8</ele>
        <time>2012-07-26T07:14:53.0925945Z</time>
      </trkpt>
      <trkpt lat="45.83734" lon="5.21931">
        <ele>229.3</ele>
        <time>2012-07-26T07:14:53.0925945Z</time>
      </trkpt>
      <trkpt lat="45.8317" lon="5.22166">
        <ele>223.8</ele>
        <time>2012-07-26T07:14:53.0925945Z</time>
      </trkpt>
      <trkpt lat="45.8252" lon="5.21914">
        <ele>207</ele>
        <time>2012-07-26T07:14:53.0925945Z</time>
      </trkpt>
      <trkpt lat="45.81911" lon="5.21226">
        <ele>204.4</ele>
        <time>2012-07-26T07:14:53.0925945Z</time>
      </trkpt>
      <trkpt lat="45.81481" lon="5.21389">
        <ele>196.6</ele>
        <time>2012-07-26T07:14:53.0925945Z</time>
      </trkpt>
      <trkpt lat="45.81133" lon="5.21486">
        <ele>195</ele>
        <time>2012-07-26T07:14:53.0925945Z</time>
      </trkpt>
      <trkpt lat="45.8046" lon="5.2131">
        <ele>193.5</ele>
        <time>2012-07-26T07:14:53.0925945Z</time>
      </trkpt>
      <trkpt lat="45.7902" lon="5.20971">
        <ele>193</ele>
        <time>2012-07-26T07:14:53.0925945Z</time>
      </trkpt>
      <trkpt lat="45.78314" lon="5.20954">
        <ele>192.5</ele>
        <time>2012-07-26T07:14:53.0925945Z</time>
      </trkpt>
      <trkpt lat="45.78127" lon="5.20837">
        <ele>193</ele>
        <time>2012-07-26T07:14:53.0925945Z</time>
      </trkpt>
      <trkpt lat="45.77863" lon="5.20625">
        <ele>192</ele>
        <time>2012-07-26T07:14:53.0925945Z</time>
      </trkpt>
      <trkpt lat="45.77636" lon="5.20492">
        <ele>192</ele>
        <time>2012-07-26T07:14:53.0925945Z</time>
      </trkpt>
      <trkpt lat="45.77636" lon="5.20458">
        <ele>192.1</ele>
        <time>2012-07-26T07:14:53.0925945Z</time>
      </trkpt>
      <trkpt lat="45.7751" lon="5.20426">
        <ele>192.2</ele>
        <time>2012-07-26T07:14:53.0925945Z</time>
      </trkpt>
      <trkpt lat="45.77484" lon="5.2055">
        <ele>192.9</ele>
        <time>2012-07-26T07:14:53.0925945Z</time>
      </trkpt>
      <trkpt lat="45.77474" lon="5.20647">
        <ele>192</ele>
        <time>2012-07-26T07:14:53.0925945Z</time>
      </trkpt>
      <trkpt lat="45.77402" lon="5.20553">
        <ele>192.5</ele>
        <time>2012-07-26T07:14:53.0925945Z</time>
      </trkpt>
      <trkpt lat="45.77051" lon="5.20576">
        <ele>193</ele>
        <time>2012-07-26T07:14:53.0925945Z</time>
      </trkpt>
      <trkpt lat="45.76904" lon="5.20554">
        <ele>194.4</ele>
        <time>2012-07-26T07:14:53.0925945Z</time>
      </trkpt>
      <trkpt lat="45.76089" lon="5.20866">
        <ele>200.8</ele>
        <time>2012-07-26T07:14:53.0925945Z</time>
      </trkpt>
      <trkpt lat="45.75562" lon="5.2111">
        <ele>204</ele>
        <time>2012-07-26T07:14:53.0925945Z</time>
      </trkpt>
      <trkpt lat="45.75355" lon="5.21395">
        <ele>204</ele>
        <time>2012-07-26T07:14:53.0925945Z</time>
      </trkpt>
      <trkpt lat="45.75195" lon="5.21638">
        <ele>203</ele>
        <time>2012-07-26T07:14:53.0925945Z</time>
      </trkpt>
      <trkpt lat="45.74689" lon="5.22337">
        <ele>205.2</ele>
        <time>2012-07-26T07:14:53.0925945Z</time>
      </trkpt>
      <trkpt lat="45.74073" lon="5.23079">
        <ele>204.6</ele>
        <time>2012-07-26T07:14:53.0925945Z</time>
      </trkpt>
      <trkpt lat="45.73322" lon="5.23491">
        <ele>208.3</ele>
        <time>2012-07-26T07:14:53.0925945Z</time>
      </trkpt>
      <trkpt lat="45.72627" lon="5.22969">
        <ele>209.9</ele>
        <time>2012-07-26T07:14:53.0925945Z</time>
      </trkpt>
      <trkpt lat="45.72404" lon="5.23018">
        <ele>210.1</ele>
        <time>2012-07-26T07:14:53.0925945Z</time>
      </trkpt>
      <trkpt lat="45.72204" lon="5.23121">
        <ele>210.6</ele>
        <time>2012-07-26T07:14:53.0925945Z</time>
      </trkpt>
      <trkpt lat="45.71854" lon="5.22611">
        <ele>209</ele>
        <time>2012-07-26T07:14:53.0925945Z</time>
      </trkpt>
      <trkpt lat="45.71112" lon="5.21978">
        <ele>218.8</ele>
        <time>2012-07-26T07:14:53.0925945Z</time>
      </trkpt>
      <trkpt lat="45.7023" lon="5.18793">
        <ele>212.3</ele>
        <time>2012-07-26T07:14:53.0925945Z</time>
      </trkpt>
      <trkpt lat="45.69458" lon="5.17487">
        <ele>230.3</ele>
        <time>2012-07-26T07:14:53.0925945Z</time>
      </trkpt>
      <trkpt lat="45.69265" lon="5.17491">
        <ele>242.4</ele>
        <time>2012-07-26T07:14:53.0925945Z</time>
      </trkpt>
      <trkpt lat="45.69064" lon="5.17319">
        <ele>250.9</ele>
        <time>2012-07-26T07:14:53.0925945Z</time>
      </trkpt>
      <trkpt lat="45.68256" lon="5.17223">
        <ele>233.2</ele>
        <time>2012-07-26T07:14:53.0925945Z</time>
      </trkpt>
      <trkpt lat="45.67748" lon="5.16257">
        <ele>220</ele>
        <time>2012-07-26T07:14:53.0925945Z</time>
      </trkpt>
      <trkpt lat="45.67021" lon="5.15056">
        <ele>209.3</ele>
        <time>2012-07-26T07:14:53.0925945Z</time>
      </trkpt>
      <trkpt lat="45.6704" lon="5.14518">
        <ele>207.4</ele>
        <time>2012-07-26T07:14:53.0925945Z</time>
      </trkpt>
      <trkpt lat="45.668" lon="5.14276">
        <ele>214.1</ele>
        <time>2012-07-26T07:14:53.0925945Z</time>
      </trkpt>
      <trkpt lat="45.65242" lon="5.11865">
        <ele>226.9</ele>
        <time>2012-07-26T07:14:53.0925945Z</time>
      </trkpt>
      <trkpt lat="45.65421" lon="5.11497">
        <ele>226.8</ele>
        <time>2012-07-26T07:14:53.0925945Z</time>
      </trkpt>
      <trkpt lat="45.65625" lon="5.1156">
        <ele>224.1</ele>
        <time>2012-07-26T07:14:53.0925945Z</time>
      </trkpt>
      <trkpt lat="45.65624" lon="5.11596">
        <ele>225</ele>
        <time>2012-07-26T07:14:53.0925945Z</time>
      </trkpt>
    </trkseg>
  </trk>
</gpx>